Starlink 31351

operational
NORAD ID: 58972 Int'l Des: 2024-031 Owner: SPXS Country: US Constellation: starlink
LEOCIRCULAR

关于 Starlink 31351

正在加载描述...

实时位置

正在加载3D地球...

即将过境

高度历史

Altitude vs Time

uPlot chart will show altitude changes over time

两行轨道根数

1 58972U 24031H 26035.17968501 -.00003690 00000-0 -11267-3 0 9994
2 58972 53.1582 92.2713 0001182 66.9661 293.1464 15.30162400111393
Epoch: Feb 4, 2026 • Age: 6 hours

当前状态

高度 487.4 km
速度 7.62 km/s
星下点 -35.46°S, 18.65°E
发射日期 Feb 15, 2024
运行时间 1.9 years
类型 internet

技术详情

分类 Payload
质量 730.00 kg
干质量 700.00 kg
总质量 730.00 kg
长度 0.30 m
直径 4.10 m
跨度 29.00 m
形状 Box + pan
制造商 SPXS
平台类型 Starlink V2M
阶段状态 In Orbit
所有者/国家 SPXS/US

大型星座

Loading constellations...